Retour au catalogue

THOR ABLESTAR DEB

ActifLEO
NORAD 48827·DEBRIS·🇺🇸 United States

Lancé Jun 29, 1961 depuis Cape Canaveral Space Force Station

Loading…

Prochains Passages (prochaines 24 heures)

TLE

VieillissantSource: Space-Track

Époque: Sep 9, 2026, 17:53 UTC

1 48827U 61015NF  26252.74538325  .00000180  00000-0  35796-3 0  9998
2 48827  68.1608  29.1849 0340183  62.7745 300.7545 13.31511223621110

Suivez THOR ABLESTAR DEB en temps réel avec AllMySat

Download on the App Store